Regional Weather Roundup
Issued by NWS Albany, NY

Home | Current Version | Previous Version | Text Only | Print | Product List | Glossary On
Versions: 1 2 3 4 5 6 7 8 9 10 11 12 13 14 15 16 17 18 19 20 21 22 23 24 25 26 27
000
ASUS41 KALY 171910
RWRALY

NEW YORK STATE HOURLY WEATHER ROUNDUP
NATIONAL WEATHER SERVICE ALBANY NY
200 PM EST TUE JAN 17 2017

NOTE: "FAIR" INDICATES FEW OR NO CLOUDS BELOW 12,000 FEET WITH NO
SIGNIFICANT WEATHER AND/OR NO OBSTRUCTIONS TO VISIBILITY.

NYZ032-033-038>043-046>054-057>066-NYZ062>081-082-084-172000-
EAST


CITY           SKY/WX    TMP DP  RH WIND       PRES   REMARKS
ALBANY         LGT RAIN  34  24  67 CALM      30.14F
GLENS FALLS    CLOUDY    36  18  48 CALM      30.13F
POUGHKEEPSIE   MIX PCPN  35  32  88 N6        30.13F FOG     WCI  30
NEWBURGH       DRIZZLE   36  36 100 VRB5      30.12F FOG     WCI  32
MONTGOMERY     CLOUDY    36  33  89 N6        30.11F FOG     WCI  31
WHITE PLAINS   LGT RAIN  37  34  89 E6        30.11F FOG     WCI  32
ISLIP          LGT RAIN  39  37  92 SE5       30.13F FOG
NEW YORK CITY  LGT RAIN  40  36  86 E7        30.13F FOG
CENTRAL PARK   CLOUDY    39  37  92 E8        30.13F FOG     WCI  33
$$

NYZ005>009-017-018-044>046-055-056-172000-
CENTRAL


CITY           SKY/WX    TMP DP  RH WIND       PRES   REMARKS
FULTON         RAIN      34  32  92 E9        29.92F FOG     WCI  27
SYRACUSE       HVY RAIN  32  32 100 E15       29.96F FOG     WCI  22
ROME           RAIN      33  28  81 SE9       30.05F WCI  25
ELMIRA         LGT RAIN  38  34  85 VRB3      29.92F
BINGHAMTON     RAIN      33  32  96 SE15      29.94F FOG     WCI  23
MONTICELLO     CLOUDY    30  30 100 E8        30.07F WCI  23
$$

NYZ026>034-041>043-087-172000-
NORTH


CITY           SKY/WX    TMP DP  RH WIND       PRES   REMARKS
WATERTOWN      LGT RAIN  35  21  56 E9        30.00F WCI  28
FORT DRUM      NOT AVBL
OGDENSBURG     FAIR      35  27  73 E9        30.05F WCI  28
MASSENA        CLOUDY    34  26  72 NE16      30.09F WCI  24
SARANAC LAKE   CLOUDY    32  20  61 NE10      30.00F WCI  24
PLATTSBURGH    PTSUNNY   34  22  61 N3        30.14F
$$

NYZ001>004-010>016-019>021-085-172000-
WEST


CITY           SKY/WX    TMP DP  RH WIND       PRES   REMARKS
NIAGARA FALLS  LGT RAIN  39  35  86 E10       29.78F FOG     WCI  32
BUFFALO        LGT RAIN  44  42  93 E6        29.77F FOG
DUNKIRK        LGT RAIN  52  49  89 S16G28    29.75F
JAMESTOWN      CLOUDY    46  45  93 S6        29.78F VSB<1/4
WELLSVILLE     FOG       42  40  92 VRB6      29.84F VSB 1
ROCHESTER      LGT RAIN  37  36  96 SE9       29.86F FOG     WCI  30
PENN YAN       RAIN      38  34  85 SE6       29.89F FOG     WCI  33
$$

             KEY
       WCI = WIND CHILL INDEX
       VSB = VISIBILITY
       HX  = HEAT INDEX
$$




USA.gov is the U.S. government's official web portal to all federal, state and local government web resources and services.